Location: ??????
(56.0120°N, 39.1740°E)
Time: 15:15:36
(UTC+00:00)

Cosmos 1741 Rocket - Pass Details

Date: 14 April 2026
Orbit: 756 x 778 km, 74.0° (Epoch: 17 May)

Event Time Altitude Azimuth Distance (km) Brightness Sun altitude
Rises 22:20:57 0° 331° (NNW) 3,261 7.9 -23.2°
Reaches altitude 10° 22:23:20 10° 330° (NNW) 2,333 7.1 -23.1°
Maximum altitude 22:28:38 80° 245° (WSW) 795 3.9 -22.9°
Enters shadow 22:29:51 54° 169° (SSE) 941 4.1 -22.9°
